This is the latest recevied weather packets stored in our database for station/object KJ5PEC-13. If no packets are shown the sender has not sent any weather packets the latest 10 day(s).
| Time | Temp. | Humidity | Pressure | Rain* | Wind** | Luminosity | Snow |
|---|---|---|---|---|---|---|---|
| 1788164494 | 6.11° C | 96% | 1031.8 hPa | 0 mm | - | 0 W/m² | - |
| 1788164189 | 6.67° C | 96% | 1031.6 hPa | 0 mm | - | 0 W/m² | - |
| 1788163885 | 6.11° C | 96% | 1031.8 hPa | 0 mm | - | 0 W/m² | - |
| 1788163581 | 6.67° C | 96% | 1031.6 hPa | 0 mm | - | 0 W/m² | - |
| 1788163275 | 6.67° C | 96% | 1031.9 hPa | 0 mm | - | 0 W/m² | - |
| 1788162971 | 6.67° C | 95% | 1032 hPa | 0 mm | - | 0 W/m² | - |
| 1788162667 | 6.67° C | 95% | 1031.9 hPa | 0 mm | - | 0 W/m² | - |
| 1788162366 | 7.22° C | 95% | 1032 hPa | 0 mm | - | 0 W/m² | - |
| 1788162061 | 6.67° C | 95% | 1031.8 hPa | 0 mm | - | 0 W/m² | - |
| 1788161755 | 6.67° C | 95% | 1031.9 hPa | 0 mm | - | 0 W/m² | - |
| 1788161455 | 6.67° C | 94% | 1032.1 hPa | 0 mm | - | 0 W/m² | - |
| 1788161150 | 7.22° C | 94% | 1032 hPa | 0 mm | - | 0 W/m² | - |
| 1788160847 | 7.22° C | 93% | 1031.9 hPa | 0 mm | - | 0 W/m² | - |
| 1788160545 | 7.78° C | 93% | 1032.1 hPa | 0 mm | - | 0 W/m² | - |
| 1788160241 | 7.78° C | 92% | 1032 hPa | 0 mm | - | 0 W/m² | - |
| 1788159939 | 7.78° C | 91% | 1032.3 hPa | 0 mm | - | 0 W/m² | - |
| 1788159647 | 8.33° C | 91% | 1032.1 hPa | 0 mm | - | 0 W/m² | - |
| 1788159333 | 8.33° C | 91% | 1032.1 hPa | 0 mm | - | 0 W/m² | - |
| 1788159027 | 8.33° C | 91% | 1032 hPa | 0 mm | - | 0 W/m² | - |
| 1788158722 | 8.33° C | 91% | 1032.1 hPa | 0 mm | - | 0 W/m² | - |
| 1788158418 | 8.33° C | 92% | 1032.7 hPa | 0 mm | - | 0 W/m² | - |
| 1788158114 | 8.33° C | 93% | 1032.4 hPa | 0 mm | - | 0 W/m² | - |
| 1788157813 | 8.33° C | 93% | 1032.4 hPa | 0 mm | - | 0 W/m² | - |
| 1788157508 | 7.78° C | 93% | 1032.3 hPa | 0 mm | - | 0 W/m² | - |
| 1788157208 | 7.78° C | 93% | 1032.3 hPa | 0 mm | - | 0 W/m² | - |
* Rain latest hour (hover to see other rain measurements)
** Current wind speed in m/s (hover to see current wind gust speed)